Time,TemperatureF,DewpointF,PressureIn,WindDirection,WindDirectionDegrees,WindSpeedMPH,WindSpeedGustMPH,Humidity,HourlyPrecipIn,Conditions,Clouds,dailyrainin,SoftwareType,DateUTC
2013-03-14 00:00:00,32.2,15.6,29.06,SW,230,0.0,0.0,50,0.00,,SCT250,0.00,VWS V14.01,2013-03-14 05:00:00,
2013-03-14 00:15:00,31.8,15.8,29.06,SW,227,0.0,0.0,51,0.00,,SCT250,0.00,VWS V14.01,2013-03-14 05:15:00,
2013-03-14 00:30:00,31.5,15.4,29.06,SW,231,0.0,0.0,51,0.00,,SCT250,0.00,VWS V14.01,2013-03-14 05:30:00,
2013-03-14 00:45:00,31.8,16.2,29.06,SW,226,0.0,0.0,52,0.00,,SCT250,0.00,VWS V14.01,2013-03-14 05:45:00,
2013-03-14 01:00:00,31.8,16.2,29.03,SW,227,0.0,0.0,52,0.00,,SCT250,0.00,VWS V14.01,2013-03-14 06:00:00,
2013-03-14 01:15:00,31.8,16.2,29.03,SW,229,0.0,0.0,52,0.00,,SCT250,0.00,VWS V14.01,2013-03-14 06:15:00,
2013-03-14 01:30:00,32.4,16.7,29.03,South,191,0.0,0.0,52,0.00,,SCT250,0.00,VWS V14.01,2013-03-14 06:30:00,
2013-03-14 01:45:00,32.7,17.0,29.03,WSW,237,0.0,0.0,52,0.00,,SCT250,0.00,VWS V14.01,2013-03-14 06:45:00,
2013-03-14 02:00:00,33.1,17.4,29.00,SW,227,0.0,0.0,52,0.00,,SCT250,0.00,VWS V14.01,2013-03-14 07:00:00,
2013-03-14 02:15:00,33.4,17.3,29.00,SW,214,0.0,0.0,51,0.00,,SCT250,0.00,VWS V14.01,2013-03-14 07:15:00,
2013-03-14 02:30:00,33.6,17.4,28.97,WSW,239,0.0,10.7,51,0.00,,SCT250,0.00,VWS V14.01,2013-03-14 07:30:00,
2013-03-14 02:45:00,33.6,17.4,28.97,SSW,203,0.0,0.0,51,0.00,,SCT250,0.00,VWS V14.01,2013-03-14 07:45:00,
2013-03-14 03:00:00,34.0,17.8,28.97,SSE,165,0.0,0.0,51,0.00,,SCT250,0.00,VWS V14.01,2013-03-14 08:00:00,
2013-03-14 03:15:00,34.0,17.8,28.97,SSW,202,0.0,0.0,51,0.00,,SCT250,0.00,VWS V14.01,2013-03-14 08:15:00,
2013-03-14 03:30:00,34.2,17.9,28.97,SW,226,0.0,0.0,51,0.00,,SCT250,0.00,VWS V14.01,2013-03-14 08:30:00,
2013-03-14 03:45:00,34.3,18.1,28.97,WSW,237,0.0,0.0,51,0.00,,SCT250,0.00,VWS V14.01,2013-03-14 08:45:00,
2013-03-14 04:00:00,34.0,18.2,28.94,SW,216,0.0,0.0,52,0.00,,SCT250,0.00,VWS V14.01,2013-03-14 09:00:00,
2013-03-14 04:15:00,34.3,18.5,28.97,SSW,210,0.0,0.0,52,0.00,,SCT250,0.00,VWS V14.01,2013-03-14 09:15:00,
2013-03-14 04:30:00,34.3,18.5,28.94,SW,228,0.0,0.0,52,0.00,,SCT250,0.00,VWS V14.01,2013-03-14 09:30:00,
2013-03-14 04:45:00,34.5,18.7,28.94,SW,227,0.0,0.0,52,0.00,,SCT250,0.00,VWS V14.01,2013-03-14 09:45:00,
2013-03-14 05:00:00,34.5,18.7,28.94,SW,218,0.0,0.0,52,0.00,,SCT250,0.00,VWS V14.01,2013-03-14 10:00:00,
2013-03-14 05:15:00,34.0,18.7,28.91,SW,223,0.0,0.0,53,0.00,,OVC100,0.00,VWS V14.01,2013-03-14 10:15:00,
2013-03-14 05:30:00,33.8,18.5,28.91,SW,234,0.0,0.0,53,0.00,,OVC100,0.00,VWS V14.01,2013-03-14 10:30:00,
2013-03-14 05:45:00,33.8,18.9,28.91,SSW,195,0.0,0.0,54,0.00,,OVC100,0.00,VWS V14.01,2013-03-14 10:45:00,
2013-03-14 06:00:00,33.6,18.8,28.91,SSW,202,0.0,0.0,54,0.00,,OVC100,0.00,VWS V14.01,2013-03-14 11:00:00,
2013-03-14 06:15:00,33.4,19.0,28.91,SW,219,0.0,0.0,55,0.00,,BKN110,0.00,VWS V14.01,2013-03-14 11:15:00,
2013-03-14 06:30:00,33.3,18.9,28.91,SW,219,0.0,0.0,55,0.00,,BKN110,0.00,VWS V14.01,2013-03-14 11:30:00,
2013-03-14 06:45:00,32.7,18.8,28.91,SW,225,0.0,0.0,56,0.00,,BKN110,0.00,VWS V14.01,2013-03-14 11:45:00,
2013-03-14 07:00:00,32.5,19.0,28.88,SW,231,0.0,0.0,57,0.00,,BKN110,0.00,VWS V14.01,2013-03-14 12:00:00,
2013-03-14 07:15:00,32.2,18.7,28.88,SSW,199,0.0,0.0,57,0.00,,BKN150,0.00,VWS V14.01,2013-03-14 12:15:00,
2013-03-14 07:30:00,31.6,19.0,28.91,SW,216,0.0,0.0,59,0.00,,BKN150,0.00,VWS V14.01,2013-03-14 12:30:00,
2013-03-14 07:45:00,31.3,18.6,28.91,SW,216,0.0,0.0,59,0.00,,BKN150,0.00,VWS V14.01,2013-03-14 12:45:00,
2013-03-14 08:00:00,31.3,19.0,28.91,SW,218,0.0,0.0,60,0.00,,BKN150,0.00,VWS V14.01,2013-03-14 13:00:00,
2013-03-14 08:15:00,31.8,19.9,28.91,SW,218,0.0,0.0,61,0.00,,SCT250,0.00,VWS V14.01,2013-03-14 13:15:00,
2013-03-14 08:30:00,33.1,21.5,28.91,SW,218,0.0,0.0,62,0.00,,SCT250,0.00,VWS V14.01,2013-03-14 13:30:00,
2013-03-14 08:45:00,36.9,26.2,28.91,SW,231,0.0,0.0,65,0.00,,SCT250,0.00,VWS V14.01,2013-03-14 13:45:00,
2013-03-14 09:00:00,42.1,29.6,28.91,SW,229,0.0,0.0,61,0.00,,SCT250,0.00,VWS V14.01,2013-03-14 14:00:00,
2013-03-14 09:15:00,44.8,27.3,28.91,West,270,0.0,0.0,50,0.00,,SCT250,0.00,VWS V14.01,2013-03-14 14:15:00,
2013-03-14 09:30:00,45.1,23.4,28.91,SW,234,0.0,0.0,42,0.00,,SCT250,0.00,VWS V14.01,2013-03-14 14:30:00,
2013-03-14 09:45:00,45.5,23.8,28.91,SW,224,0.0,0.0,42,0.00,,SCT250,0.00,VWS V14.01,2013-03-14 14:45:00,
2013-03-14 10:00:00,46.0,23.7,28.91,SW,230,0.0,0.0,41,0.00,,SCT250,0.00,VWS V14.01,2013-03-14 15:00:00,
2013-03-14 10:15:00,45.3,23.6,28.91,WSW,239,0.0,0.0,42,0.00,,SCT250,0.00,VWS V14.01,2013-03-14 15:15:00,
2013-03-14 10:30:00,45.0,23.8,28.91,SW,223,0.0,0.0,43,0.00,,SCT250,0.00,VWS V14.01,2013-03-14 15:30:00,
2013-03-14 10:45:00,44.4,23.9,28.94,West,261,0.0,0.0,44,0.00,,SCT250,0.00,VWS V14.01,2013-03-14 15:45:00,
2013-03-14 11:00:00,44.6,24.0,28.94,NNW,342,0.0,0.0,44,0.00,,SCT250,0.00,VWS V14.01,2013-03-14 16:00:00,
2013-03-14 11:15:00,44.6,24.0,28.94,NNW,336,0.0,0.0,44,0.00,,SCT250,0.00,VWS V14.01,2013-03-14 16:15:00,
2013-03-14 11:30:00,45.1,24.0,28.94,ENE,71,0.0,8.1,43,0.00,,SCT250,0.00,VWS V14.01,2013-03-14 16:30:00,
2013-03-14 11:45:00,45.9,25.2,28.94,North,353,0.0,9.4,44,0.00,,SCT250,0.00,VWS V14.01,2013-03-14 16:45:00,
2013-03-14 12:00:00,46.2,25.5,28.94,ENE,71,0.0,9.4,44,0.00,,SCT250,0.00,VWS V14.01,2013-03-14 17:00:00,
2013-03-14 12:15:00,47.1,25.8,28.94,NE,53,0.0,12.1,43,0.00,,BKN250,0.00,VWS V14.01,2013-03-14 17:15:00,
2013-03-14 12:30:00,47.8,26.4,28.94,North,350,19.5,19.5,43,0.00,,BKN250,0.00,VWS V14.01,2013-03-14 17:30:00,
2013-03-14 12:45:00,48.4,26.4,28.94,North,357,0.0,19.5,42,0.00,,BKN250,0.00,VWS V14.01,2013-03-14 17:45:00,
2013-03-14 13:00:00,48.7,26.7,28.94,NNE,26,0.0,8.1,42,0.00,,BKN250,0.00,VWS V14.01,2013-03-14 18:00:00,
2013-03-14 13:15:00,49.3,27.2,28.94,NE,49,0.0,12.1,42,0.00,,BKN250,0.00,VWS V14.01,2013-03-14 18:15:00,
2013-03-14 13:30:00,49.5,27.9,28.97,ESE,107,0.0,14.1,43,0.00,,BKN250,0.00,VWS V14.01,2013-03-14 18:30:00,
2013-03-14 13:45:00,50.2,28.0,28.97,ENE,67,0.0,10.7,42,0.00,,BKN250,0.00,VWS V14.01,2013-03-14 18:45:00,
2013-03-14 14:00:00,50.2,28.0,28.97,ENE,69,0.0,20.8,42,0.00,,BKN250,0.00,VWS V14.01,2013-03-14 19:00:00,
2013-03-14 14:15:00,50.7,28.5,28.94,NNE,25,0.0,14.1,42,0.00,,BKN250,0.00,VWS V14.01,2013-03-14 19:15:00,
2013-03-14 14:30:00,51.3,29.0,28.94,East,80,0.0,9.4,42,0.00,,BKN250,0.00,VWS V14.01,2013-03-14 19:30:00,
2013-03-14 14:45:00,51.6,30.4,28.94,NE,49,0.0,0.0,44,0.00,,BKN250,0.00,VWS V14.01,2013-03-14 19:45:00,
2013-03-14 15:00:00,52.2,30.4,28.94,NE,38,0.0,8.1,43,0.00,,BKN250,0.00,VWS V14.01,2013-03-14 20:00:00,
2013-03-14 15:15:00,52.5,30.1,28.94,NE,37,0.0,10.7,42,0.00,,SCT250,0.00,VWS V14.01,2013-03-14 20:15:00,
2013-03-14 15:30:00,52.9,30.4,28.94,ENE,69,0.0,8.1,42,0.00,,SCT250,0.00,VWS V14.01,2013-03-14 20:30:00,
2013-03-14 15:45:00,53.4,31.5,28.94,NNE,33,10.7,10.7,43,0.00,,SCT250,0.00,VWS V14.01,2013-03-14 20:45:00,
2013-03-14 16:00:00,54.0,32.6,28.94,NE,48,0.0,12.1,44,0.00,,SCT250,0.00,VWS V14.01,2013-03-14 21:00:00,
2013-03-14 16:15:00,54.3,32.9,28.94,ENE,72,0.0,12.1,44,0.00,,SCT250,0.00,VWS V14.01,2013-03-14 21:15:00,
2013-03-14 16:30:00,54.5,33.0,28.94,ENE,59,0.0,12.1,44,0.00,,SCT250,0.00,VWS V14.01,2013-03-14 21:30:00,
2013-03-14 16:45:00,54.9,33.4,28.94,ENE,62,0.0,12.1,44,0.00,,SCT250,0.00,VWS V14.01,2013-03-14 21:45:00,
2013-03-14 17:00:00,55.4,32.7,28.94,NNW,345,0.0,0.0,42,0.00,,SCT250,0.00,VWS V14.01,2013-03-14 22:00:00,
2013-03-14 17:15:00,54.7,32.6,28.94,WNW,291,0.0,12.1,43,0.00,,SCT250,0.00,VWS V14.01,2013-03-14 22:15:00,
2013-03-14 17:30:00,54.7,33.2,28.94,SW,214,0.0,0.0,44,0.00,,SCT250,0.00,VWS V14.01,2013-03-14 22:30:00,
2013-03-14 17:45:00,54.7,32.1,28.94,ENE,60,0.0,0.0,42,0.00,,SCT250,0.00,VWS V14.01,2013-03-14 22:45:00,
2013-03-14 18:00:00,54.5,31.9,28.94,East,81,0.0,0.0,42,0.00,,SCT250,0.00,VWS V14.01,2013-03-14 23:00:00,
2013-03-14 18:15:00,54.1,32.2,28.97,East,80,0.0,8.1,43,0.00,,BKN250,0.00,VWS V14.01,2013-03-14 23:15:00,
2013-03-14 18:30:00,53.8,33.5,28.94,ENE,78,0.0,0.0,46,0.00,,BKN250,0.00,VWS V14.01,2013-03-14 23:30:00,
2013-03-14 18:45:00,53.2,33.5,28.94,ENE,62,0.0,0.0,47,0.00,,BKN250,0.00,VWS V14.01,2013-03-14 23:45:00,
2013-03-14 19:00:00,52.5,32.9,28.94,ENE,75,0.0,0.0,47,0.00,,BKN250,0.00,VWS V14.01,2013-03-15 00:00:00,
2013-03-14 19:15:00,51.6,32.6,28.94,ENE,75,0.0,0.0,48,0.00,,BKN250,0.00,VWS V14.01,2013-03-15 00:15:00,
2013-03-14 19:30:00,50.2,31.8,28.94,ENE,75,0.0,0.0,49,0.00,,BKN250,0.00,VWS V14.01,2013-03-15 00:30:00,
2013-03-14 19:45:00,48.2,30.5,28.94,ENE,75,0.0,0.0,50,0.00,,BKN250,0.00,VWS V14.01,2013-03-15 00:45:00,
2013-03-14 20:00:00,46.9,30.2,28.94,ENE,75,0.0,0.0,52,0.00,,BKN250,0.00,VWS V14.01,2013-03-15 01:00:00,
2013-03-14 20:15:00,46.0,31.2,28.94,ENE,75,0.0,0.0,56,0.00,,BKN250,0.00,VWS V14.01,2013-03-15 01:15:00,
2013-03-14 20:30:00,45.5,32.0,28.94,ENE,75,0.0,0.0,59,0.00,,BKN250,0.00,VWS V14.01,2013-03-15 01:30:00,
2013-03-14 20:45:00,44.4,31.8,28.94,ENE,75,0.0,0.0,61,0.00,,BKN250,0.00,VWS V14.01,2013-03-15 01:45:00,
2013-03-14 21:00:00,43.7,32.0,28.94,ENE,75,0.0,0.0,63,0.00,,BKN250,0.00,VWS V14.01,2013-03-15 02:00:00,
2013-03-14 21:15:00,43.0,31.3,28.94,ENE,75,0.0,0.0,63,0.00,,BKN250,0.00,VWS V14.01,2013-03-15 02:15:00,
2013-03-14 21:30:00,42.4,31.5,28.94,ENE,75,0.0,0.0,65,0.00,,BKN250,0.00,VWS V14.01,2013-03-15 02:30:00,
2013-03-14 21:45:00,41.7,31.2,28.91,ENE,75,0.0,0.0,66,0.00,,BKN250,0.00,VWS V14.01,2013-03-15 02:45:00,
2013-03-14 22:00:00,40.8,30.7,28.91,ENE,75,0.0,0.0,67,0.00,,BKN250,0.00,VWS V14.01,2013-03-15 03:00:00,
2013-03-14 22:15:00,40.1,30.4,28.91,ENE,75,0.0,0.0,68,0.00,,SCT250,0.00,VWS V14.01,2013-03-15 03:15:00,
2013-03-14 22:30:00,39.7,30.4,28.91,ENE,75,0.0,0.0,69,0.00,,SCT250,0.00,VWS V14.01,2013-03-15 03:30:00,
2013-03-14 22:45:00,40.1,31.8,28.91,ENE,75,0.0,0.0,72,0.00,,SCT250,0.00,VWS V14.01,2013-03-15 03:45:00,
2013-03-14 23:00:00,39.7,31.8,28.91,ENE,75,0.0,0.0,73,0.00,,SCT250,0.00,VWS V14.01,2013-03-15 04:00:00,
2013-03-14 23:15:00,39.0,31.5,28.91,ENE,75,0.0,0.0,74,0.00,,FEW250,0.00,VWS V14.01,2013-03-15 04:15:00,
2013-03-14 23:30:00,38.1,30.6,28.91,ENE,75,0.0,0.0,74,0.00,,FEW250,0.00,VWS V14.01,2013-03-15 04:30:00,
2013-03-14 23:45:00,37.8,30.6,28.91,ENE,75,0.0,0.0,75,0.00,,FEW250,0.00,VWS V14.01,2013-03-15 04:45:00,